Regional Weather Roundup
Issued by NWS

Home | Current Version | Previous Version | Text Only | Print | Product List | Glossary Off
Versions: 1 2 3 4 5 6 7 8 9 10 11 12 13 14 15 16 17 18 19 20 21 22 23 24 25 26 27 28 29 30 31 32 33 34 35 36 37 38 39 40 41 42 43 44 45 46 47 48 49 50

000
ASUS43 KMPX 040710
RWRMN
WEATHER ROUNDUP FOR MINNESOTA
NATIONAL WEATHER SERVICE TWIN CITIES/CHANHASSEN MN
200 AM CDT SAT JUL 04 2015


NOTE: "FAIR" INDICATES FEW OR NO CLOUDS BELOW 12,000 FEET WITH NO
SIGNIFICANT WEATHER AND/OR OBSTRUCTIONS TO VISIBILITY. N/A MEANS
CURRENT SKY AND/OR WEATHER CONDITIONS ARE NOT AVAILABLE.

MNZ060>063-068>070-040800-
   Twin Cities Metro

CITY           SKY/WX    TMP DP  RH WIND       PRES   REMARKS
TWIN CITIES    MOCLDY    70  60  70 VRB3      29.92S
ST PAUL        CLEAR     66  62  87 CALM      29.92S
CRYSTAL        CLEAR     66  61  84 CALM      29.91S
BLAINE         CLEAR     68  63  83 CALM      29.92S
LAKEVILLE      CLEAR     61  57  88 CALM      29.93S
EDEN PRAIRIE   CLEAR     66  61  84 CALM      29.92S
SOUTH ST PAUL  CLEAR     65  59  80 CALM      29.92S
LAKE ELMO      FAIR      63  61  94 CALM      29.93S
$$
MNZ001>005-007-008-013>017-022>024-027-028-040800-
   Northwest Minnesota

CITY           SKY/WX    TMP DP  RH WIND       PRES   REMARKS
BEMIDJI        CLEAR     56  55  95 CALM      29.94S
HALLOCK        CLEAR     61  57  88 SE7       29.88F FOG
ROSEAU         CLEAR     61  55  82 CALM      29.91F
WARROAD        CLEAR     61  57  88 CALM      29.91F
THIEF RVR FALL CLEAR     61  59  94 CALM      29.92S
CROOKSTON      CLEAR     63  61  94 SE5       29.91F FOG
FOSSTON          N/A     55  52  88 CALM      29.94R HAZE
DETROIT LAKES  CLEAR     63  61  94 CALM      29.95S FOG
MOORHEAD       CLEAR     64  61  88 CALM      29.91S FOG
PARK RAPIDS    CLOUDY    60  57  89 CALM      29.94S FOG
MAHNOMEN       CLOUDY    61  59  92 CALM      29.92S
$$
MNZ006-009>011-018-025>026-040800-
   North Central Minnesota

CITY           SKY/WX    TMP DP  RH WIND       PRES   REMARKS
BAUDETTE       CLEAR     59  56  89 E5        29.92R
FLAG ISLAND    CLEAR     68  59  73 CALM      29.89F
INTL FALLS     CLEAR     51  50  96 CALM      29.94R
WASKISH        CLEAR     55  54  94 CALM      29.94R FOG
BIG FORK       CLEAR     52  50  93 CALM      29.95S FOG
LONGVILLE      CLEAR     55  54  94 CALM      29.93F FOG
GRAND RAPIDS   CLEAR     55  52  88 CALM      29.94S
CRANE LAKE     CLEAR     48  48 100 CALM      29.96S
ORR            CLEAR     52  48  87 CALM      29.93S FOG
COOK           CLEAR     52  52 100 CALM      29.96S
WALKER         FOG       56  56  99 CALM      29.93S VSB 3/4
$$
MNZ012-019>021-037-040800-
   Northeast Minnesota

CITY           SKY/WX    TMP DP  RH WIND       PRES   REMARKS
DULUTH         CLEAR     61  54  77 NE3       29.93S
ELY            CLEAR     52  48  87 CALM      29.95S FOG
HIBBING        CLEAR     52  51  97 CALM      29.94F
EVELETH        CLEAR     52  52 100 CALM      29.96  FOG
DULUTH HARBOR  CLEAR     64  61  88 E5        29.92S
TWO HARBORS    CLEAR     63  55  77 N3        29.91S
SILVER BAY     CLEAR     55  52  88 CALM      29.92S
GRAND MARAIS     N/A     58  54  86 N3        29.91F
G MARAIS ARPRT CLEAR     52  48  87 CALM      29.97S
$$
MNZ029>031-032-039>041-046>048-054>057-064-040800-
   West Central Minnesota

CITY           SKY/WX    TMP DP  RH WIND       PRES   REMARKS
FERGUS FALLS   CLEAR     66  64  94 E5        29.92S FOG
WHEATON        CLEAR     57  57 100 CALM      29.93F FOG
MORRIS         FOG       63  61  94 CALM      29.92S VSB 1
ALEXANDRIA     MOCLDY    63  62  97 CALM      29.95S FOG
ELBOW LAKE     FAIR      68  63  83 E5        29.92F HAZE
WADENA           N/A     57  57 100 CALM      29.94S FOG
GLENWOOD       CLEAR     66  63  88 NE3       29.95S FOG
APPLETON       CLEAR     63  61  94 CALM      29.92S FOG
BENSON         FOG       61  57  88 CALM      29.93S VSB<1/4
ORTONVILLE     CLEAR     66  63  88 CALM      29.92S FOG
MADISON        CLEAR     64  63  94 W3        29.93S FOG
WILLMAR        FOG       63  63 100 CALM      29.95S VSB 1/4
$$
MNZ033>034-036-042>043-049>051-058-059-040800-
   Central Minnesota

CITY           SKY/WX    TMP DP  RH WIND       PRES   REMARKS
ST CLOUD       FOG       60  60 100 CALM      29.92S VSB 1/2
SAUK CENTRE    FAIR      60  59  97 CALM      29.94S FOG
PAYNESVILLE    FOG       56  57 100 CALM      29.94S VSB 1/2
AITKIN         HAZE      55  48  76 CALM      29.92S VSB 1/2
PINE RIVER     FOG       55  55 100 CALM      29.97S VSB 3/4
BRAINERD       FOG       57  56  96 CALM      29.93F VSB 1/4
STAPLES        CLEAR     59  57  94 CALM      29.94S FOG
LONG PRAIRIE   CLOUDY    61  59  94 CALM      29.95S FOG
LITTLE FALLS   CLOUDY    59  57  94 CALM      29.93F FOG
LITCHFIELD     CLEAR     66  64  94 W3        29.93F
BUFFALO        PTCLDY    63  59  87 CALM      29.94S
MAPLE LAKE     CLEAR     64  63  97 CALM      29.93F FOG
$$
MNZ037-044-045-052-053-040800-
   East Central Minnesota

CITY           SKY/WX    TMP DP  RH WIND       PRES   REMARKS
PRINCETON      FOG       61  61 100 CALM      29.92F VSB 1/4
MORA           FOG       59  57  94 CALM      29.93F VSB 1/2
CAMBRIDGE      CLEAR     64  55  72 CALM      29.90S HAZE
RUSH CITY        N/A     61  60  96 CALM      29.91F FOG
MOOSE LAKE     FOG       55  54  94 CALM      29.90F VSB 1
HINCKLEY       FAIR      61  61 100 CALM      29.92S FOG
CLOQUET        CLEAR     55  52  88 CALM      29.93S
MCGREGOR       CLEAR     55  54  94 CALM      29.93F
$$
MNZ071>073-080-081-089-090-097-098-040800-
   Southwest Minnesota

CITY           SKY/WX    TMP DP  RH WIND       PRES   REMARKS
MONTEVIDEO     CLEAR     66  63  88 CALM      29.93S
GRANITE FALLS  CLEAR     63  61  94 CALM      29.94S
CANBY          CLEAR     64  63  94 W3        29.95R FOG
MARSHALL       CLEAR     68  61  77 W9        29.93
REDWOOD FALLS  CLEAR     65  61  87 SW5       29.93S
OLIVIA         CLEAR     63  55  77 CALM      29.92S
PIPESTONE      CLEAR     63  61  94 SW3       29.98S FOG
WINDOM         CLEAR     64  59  82 CALM      29.97S
WORTHINGTON    CLEAR     63  57  82 SW7       29.98S
JACKSON        CLEAR     64  55  72 SW5       29.98S
TRACY          MOCLDY    70  65  84 SW8       29.96R
SLAYTON        CLEAR     65  63  92 CALM      29.98S FOG
$$
MNZ065>067-074>077-082>085-091>093-040800-
   South Central Minnesota

CITY           SKY/WX    TMP DP  RH WIND       PRES   REMARKS
MANKATO        CLEAR     64  57  77 S6        29.94S
NEW ULM        CLEAR     63  61  94 SW5       29.94S
ST JAMES       CLEAR     63  61  94 CALM      29.96S
FAIRMONT       CLEAR     63  55  77 CALM      29.95F
GLENCOE        PTCLDY    63  61  93 CALM      29.93S
FARIBAULT      PTCLDY    61  57  88 CALM      29.95S
OWATONNA       CLEAR     63  57  82 CALM      29.95S
WASECA         CLEAR     59  55  88 S3        29.96S
ALBERT LEA     CLEAR     63  55  77 SW3       29.96S
$$
MNZ078>079-086>088-094>096-040800-
   Southeast Minnesota

CITY           SKY/WX    TMP DP  RH WIND       PRES   REMARKS
ROCHESTER      CLEAR     60  55  83 SW5       29.96S
RED WING       CLEAR     61  57  88 CALM      29.92S
STANTON        CLOUDY    64  57  77 S3        29.93R
DODGE CENTER   CLEAR     61  55  82 SW3       29.96S
WINONA         CLEAR     61  59  94 CALM      29.94S
AUSTIN         CLEAR     61  55  82 CALM      29.96S
PRESTON        CLEAR     59  54  82 SW5       29.97S
$$
ABBREVIATIONS USED IN REMARKS
   TC - TEMPERATURES IN CELSIUS
  WCI - WIND CHILL INDEX
   HX - HEAT INDEX
  VSB - VISIBILITY
$$


USA.gov is the U.S. government's official web portal to all federal, state and local government web resources and services.